[[{"header":{"parameterUnit":"m.s-1","parameterCategory":2,"la1":30.2991,"la2":30.254,"lo1":-89.0895,"lo2":-89.0444,"dy":0.0017,"dx":0.0017,"nx":28,"ny":28,"refTime":"2023-09-06T09:00:00:Z","depth":"0","parameterNumber":2,"parameterNumberName":"U-component_of_CURRENTS"},"data":[0,0,0,0,0,0,0,0,0,0,0,0,0,0,0,0,0,0,0,0,0,0,0,0,0,0,0,0,0,0,0,0,0,0,0,0,0,0,0,0,0,0,0,0,0,0,0,0,0,0,0,0,0,0,0,0,0,0,0.2793,0.2792,0,0.272,0.2719,0.2718,0.2636,0.2636,0.2635,0.2634,0.2541,0.2539,0.2537,0,0,0,0,0,0,0,0,0,0,0,0,0,0.2844,0.2843,0.2793,0.2792,0.2792,0.272,0.2719,0.2717,0.2636,0.2636,0.2635,0.2634,0.2541,0.2539,0.2537,0,0,0,0,0,0,0,0,0,0,0,0,0,0.2797,0.2843,0.2793,0.2747,0.2743,0.2721,0.2719,0.2717,0.2637,0.2636,0.2635,0.2634,0.2542,0.254,0.2537,0.254,0,0,0.2528,0.2527,0,0,0,0,0,0,0,0,0.2799,0.2794,0.2754,0.275,0.2745,0.2691,0.2703,0.2659,0.2637,0.2671,0.2634,0.2633,0.2594,0.2587,0.2567,0.2535,0.2531,0.2528,0.2526,0.2525,0.2524,0,0,0,0,0,0,0,0.2803,0.2797,0.2758,0.2754,0.2749,0.2725,0.2717,0.2694,0.2634,0.2668,0.2663,0.2665,0.259,0.257,0.2565,0.253,0.2528,0.2526,0.2524,0.2523,0.2536,0.2538,0,0,0,0,0,0,0.2825,0.28,0.2761,0.2757,0.2777,0.2725,0.2716,0.2705,0.2635,0.2625,0.2666,0.2661,0.2576,0.2568,0.2561,0.2596,0.2525,0.2522,0.2521,0.2534,0.2537,0.2539,0,0,0,0,0,0,0.2826,0.2822,0.2764,0.2782,0.2773,0.2726,0.2714,0.2704,0.2693,0.2634,0.2622,0.2667,0.2574,0.2565,0.2556,0.259,0.2521,0.2519,0.2532,0.2535,0.2538,0.2643,0,0,0,0,0,0,0.2828,0.2822,0.2825,0.2783,0.2773,0.2766,0.2716,0.2704,0.2698,0.2691,0.2632,0.2621,0.2573,0.2561,0.2554,0.2585,0.2517,0.2529,0.2533,0.2537,0.2637,0.2649,0.266,0,0,0,0,0,0.283,0.2831,0.2825,0.2821,0.2777,0.2768,0.276,0.2719,0.2699,0.2703,0.2665,0.2623,0.258,0.256,0.2551,0.2583,0.2527,0.2532,0.2537,0.2632,0.2647,0.2659,0,0,0,0,0,0,0.284,0.2823,0.2814,0.2806,0.28,0.2756,0.2755,0.2736,0.2708,0.2702,0.2642,0.263,0.2637,0.2601,0.2581,0.2601,0.255,0.2553,0.2626,0.2639,0.2651,0.2655,0.2514,0,0,0,0,0,0.2852,0.2856,0.2836,0.2834,0.2834,0.2802,0.2795,0.2774,0.2746,0.2732,0.2695,0.2663,0.2649,0.2637,0.2614,0.2622,0.2613,0.264,0.2652,0.2661,0.2661,0.2694,0.2709,0.2554,0.2554,0.2554,0,0,0.2854,0.2849,0.2848,0.284,0.2826,0.2831,0.2793,0.2793,0.2797,0.2729,0.2723,0.2702,0.2662,0.2669,0.267,0.2642,0.2706,0.2667,0.2676,0.267,0.2701,0.2716,0.2729,0.2557,0.2556,0.2556,0,0,0.2864,0.2861,0.2868,0.2873,0.2874,0.2862,0.2872,0.2848,0.2837,0.2843,0.2799,0.2804,0.277,0.2753,0.2739,0.2805,0.2768,0.28,0.2855,0.2888,0.2901,0.2912,0.2939,0.2951,0.2803,0.2803,0.2803,0,0.2866,0.2867,0.287,0.2883,0.2889,0.2883,0.2893,0.2891,0.2869,0.2868,0.2857,0.2836,0.2813,0.282,0.2846,0.2831,0.2838,0.2804,0.2904,0.2914,0.2924,0.2948,0.296,0.2808,0.2808,0.2807,0.2807,0,0.2881,0.2886,0.2894,0.291,0.2926,0.2935,0.2945,0.2957,0.2957,0.2949,0.2967,0.2946,0.2927,0.2939,0.2911,0.2965,0.2946,0.2918,0.2868,0.2946,0.2966,0.2977,0.2816,0.2814,0.2813,0.2811,0,0,0.283,0.2893,0.2885,0.2904,0.294,0.2945,0.2984,0.2999,0.3017,0.3024,0.3046,0.305,0.3039,0.3025,0.3003,0.304,0.3131,0.3015,0.3014,0.304,0.3207,0.3097,0.3098,0.3122,0.3124,0.3126,0.32,0,0.2823,0.2865,0.2894,0.2922,0.2941,0.2971,0.3005,0.3031,0.3055,0.3081,0.3087,0.3102,0.3071,0.3078,0.3111,0.3127,0.3162,0.3113,0.3127,0.3127,0.302,0.3108,0.2914,0.2955,0.3211,0.3212,0.3214,0,0.2788,0.2832,0.2871,0.2932,0.2941,0.2964,0.3016,0.3046,0.3098,0.3124,0.3149,0.3152,0.3202,0.3174,0.3237,0.3207,0.3214,0.3229,0.3231,0.3094,0.3038,0.2915,0.2964,0.2895,0.323,0.3229,0.3228,0,0.2729,0.2788,0.2825,0.2846,0.293,0.2949,0.2985,0.3046,0.3076,0.3151,0.3186,0.3232,0.3261,0.3293,0.3316,0.3288,0.3392,0.335,0.3255,0.3247,0.3064,0.3035,0.304,0.3397,0.3397,0.3396,0.3396,0,0.2687,0.2697,0.28,0.2818,0.2856,0.2922,0.296,0.3011,0.3087,0.3127,0.319,0.323,0.3297,0.3348,0.3358,0.3345,0.3421,0.328,0.3264,0.3096,0.307,0.2983,0.2954,0.3399,0.3398,0.3398,0.3397,0,0.2598,0.2664,0.2707,0.2806,0.2827,0.2852,0.2936,0.2969,0.3053,0.3115,0.3145,0.3252,0.3321,0.3368,0.3443,0.3382,0.3284,0.3367,0.3163,0.312,0.2913,0.2897,0.277,0.2687,0.3264,0.3261,0.326,0,0.2559,0.258,0.2684,0.2715,0.2754,0.2805,0.2839,0.2934,0.2976,0.3112,0.3134,0.3238,0.3271,0.3337,0.3294,0.3289,0.3211,0.3082,0.2977,0.2889,0.2862,0.2772,0.2707,0.2795,0.279,0.2785,0.2781,0,0.2493,0.2532,0.2582,0.2652,0.2691,0.2737,0.2795,0.2828,0.294,0.2992,0.3082,0.3129,0.3177,0.3081,0.3062,0.3027,0.2896,0.2984,0.295,0.2542,0.2387,0.2302,0.2773,0.2741,0.2745,0.2748,0.275,0.2752,0.2432,0.2452,0.2524,0.2573,0.262,0.2654,0.2637,0.2712,0.275,0.2768,0.2922,0.2882,0.2869,0.2802,0.2776,0.2571,0.2614,0.2431,0.2438,0.2373,0.2216,0.2593,0.25,0.2502,0.2505,0.2506,0.2508,0,0.2351,0.2388,0.2442,0.2487,0.2487,0.2545,0.2583,0.2533,0.2516,0.256,0.2575,0.2482,0.2366,0.2342,0.217,0.2042,0.1965,0.1982,0.183,0.1809,0.2192,0.2093,0.1836,0.1836,0.1836,0.1836,0.1836,0.1836,0.2312,0.2317,0.2348,0.2327,0.235,0.2275,0.2259,0.2216,0.2204,0.2085,0.1979,0.1975,0.2008,0.1899,0.1735,0.169,0.1582,0.1455,0.1541,0.183,0.1873,0.1915,0.1817,0.1505,0.1505,0.1036,0.1032,0.1029]},{"header":{"parameterUnit":"m.s-1","parameterCategory":2,"la1":30.2991,"la2":30.254,"lo1":-89.0895,"lo2":-89.0444,"dy":0.0017,"dx":0.0017,"nx":28,"ny":28,"refTime":"2023-09-06T09:00:00:Z","depth":"0","parameterNumber":3,"parameterNumberName":"V-component_of_CURRENTS"},"data":[0,0,0,0,0,0,0,0,0,0,0,0,0,0,0,0,0,0,0,0,0,0,0,0,0,0,0,0,0,0,0,0,0,0,0,0,0,0,0,0,0,0,0,0,0,0,0,0,0,0,0,0,0,0,0,0,0,0,-0.0018,-0.0018,0,-0.0019,-0.0019,-0.0019,-0.0012,-0.0012,-0.0012,-0.0012,-0.004,-0.0041,-0.0042,0,0,0,0,0,0,0,0,0,0,0,0,0,0.0014,0.0014,-0.0018,-0.0018,-0.0018,-0.0019,-0.0019,-0.0019,-0.0012,-0.0012,-0.0012,-0.0012,-0.004,-0.0041,-0.0042,0,0,0,0,0,0,0,0,0,0,0,0,0,0.0006,0.0013,-0.0018,-0.0015,-0.0015,-0.0019,-0.0019,-0.0019,-0.0012,-0.0012,-0.0012,-0.0012,-0.004,-0.0041,-0.0042,-0.0056,0,0,-0.0047,-0.0047,0,0,0,0,0,0,0,0,0.0006,0.0005,-0.0016,-0.0015,-0.0015,-0.0015,-0.0018,-0.0033,-0.0012,-0.0013,-0.0012,-0.0011,-0.0035,-0.0037,-0.0037,-0.0057,-0.0058,-0.0047,-0.0048,-0.0048,-0.0049,0,0,0,0,0,0,0,0.0007,0.0005,-0.0018,-0.0016,-0.0015,-0.0005,-0.0006,-0.002,-0.0026,-0.0013,-0.0013,-0.0013,-0.0035,-0.0035,-0.0037,-0.0059,-0.0047,-0.0048,-0.0049,-0.0049,-0.0082,-0.0082,0,0,0,0,0,0,0.0005,0.0005,-0.0018,-0.0018,-0.0004,-0.0006,-0.0007,-0.0015,-0.0025,-0.0026,-0.0013,-0.0013,-0.0033,-0.0036,-0.0038,-0.0048,-0.0048,-0.0049,-0.005,-0.0082,-0.0082,-0.0082,0,0,0,0,0,0,0.0005,0.0002,-0.0018,-0.0006,-0.0008,-0.0007,-0.0016,-0.0015,-0.0015,-0.0025,-0.0026,-0.0013,-0.0033,-0.0036,-0.0045,-0.0049,-0.005,-0.0051,-0.0082,-0.0082,-0.0082,-0.0072,0,0,0,0,0,0,0.0006,0.0002,-0.0006,-0.0007,-0.0009,-0.002,-0.0016,-0.0016,-0.0016,-0.0015,-0.0025,-0.0028,-0.0033,-0.0042,-0.0046,-0.0051,-0.0052,-0.0082,-0.0082,-0.0082,-0.0072,-0.0071,-0.0071,0,0,0,0,0,0.0007,-0.0002,-0.0007,-0.0009,-0.002,-0.002,-0.002,-0.0018,-0.0016,-0.0016,-0.0019,-0.0027,-0.0046,-0.0043,-0.0048,-0.0053,-0.0082,-0.0082,-0.0082,-0.0072,-0.0071,-0.0071,0,0,0,0,0,0,0.001,-0.0002,-0.0007,-0.002,-0.0021,-0.0019,-0.002,-0.0019,-0.0021,-0.0021,-0.0028,-0.003,-0.0039,-0.0048,-0.0045,-0.0063,-0.0066,-0.0066,-0.0057,-0.0056,-0.0056,-0.0042,-0.0054,0,0,0,0,0,0.0005,-0.0007,-0.0012,-0.0022,-0.0023,-0.0022,-0.0023,-0.0022,-0.0023,-0.0023,-0.0029,-0.0037,-0.0043,-0.005,-0.0058,-0.007,-0.0054,-0.0077,-0.0076,-0.0075,-0.0067,-0.0041,-0.0037,-0.0082,-0.0082,-0.0082,0,0,0.0002,-0.0006,-0.0013,-0.0023,-0.0024,-0.0023,-0.0022,-0.0023,-0.0022,-0.0028,-0.003,-0.0036,-0.0045,-0.0053,-0.0059,-0.0062,-0.0054,-0.0076,-0.0075,-0.0067,-0.0041,-0.0036,-0.0032,-0.0082,-0.0082,-0.0082,0,0,0.0004,-0.0014,-0.0017,-0.0022,-0.0025,-0.0026,-0.0026,-0.0026,-0.0026,-0.0031,-0.0031,-0.0034,-0.0051,-0.0052,-0.0057,-0.006,-0.005,-0.0068,-0.0058,-0.0033,-0.0029,-0.0025,0.0005,0.0012,-0.007,-0.007,-0.007,0,0.0005,-0.0002,-0.0017,-0.0018,-0.0017,-0.0026,-0.002,-0.0026,-0.0029,-0.0022,-0.0031,-0.0032,-0.0049,-0.0043,-0.0048,-0.0058,-0.0038,-0.0059,-0.0031,-0.0026,-0.0022,0.0007,0.0014,-0.007,-0.007,-0.007,-0.007,0,0.0014,0.0002,0.0001,-0.0005,-0.001,-0.0007,-0.0016,-0.0018,-0.0021,-0.002,-0.0014,-0.0027,-0.0021,-0.0036,-0.0046,-0.0029,-0.0021,-0.003,-0.0029,-0.0017,0.0013,0.0021,-0.0069,-0.0069,-0.0069,-0.007,0,0,0.0055,0.0015,0.002,0.0019,0.0,0.0008,-0.0004,0.0003,0.0018,0.0001,0.0029,0.0001,0.0005,0.0002,-0.0009,-0.0001,0.0033,-0.0006,-0.0005,0.003,0.01,0.008,0.0086,0.0034,0.0035,0.0036,0.0111,0,0.0079,0.0072,0.0049,0.0056,0.0057,0.0037,0.0036,0.0034,0.0032,0.0052,0.0039,0.0057,0.0016,0.003,0.0028,0.0045,0.0053,0.0014,0.0078,0.008,0.0066,0.0094,0.0093,0.0157,0.0119,0.012,0.0121,0,0.0119,0.0106,0.0108,0.0093,0.0096,0.01,0.0115,0.0114,0.0118,0.0119,0.0124,0.0121,0.0135,0.0098,0.0126,0.0108,0.0102,0.0102,0.0105,0.009,0.0074,0.0137,0.0172,0.0098,0.0132,0.0131,0.013,0,0.0181,0.0161,0.0165,0.0158,0.0135,0.0146,0.0148,0.0146,0.0168,0.0178,0.021,0.0203,0.0242,0.0222,0.0214,0.0179,0.0255,0.0209,0.0184,0.0183,0.0196,0.0194,0.0172,0.0224,0.0224,0.0224,0.0224,0,0.0227,0.0236,0.0197,0.0203,0.0232,0.0202,0.0245,0.0237,0.0257,0.0313,0.0265,0.0327,0.0278,0.0309,0.0262,0.0265,0.0299,0.02,0.0204,0.0198,0.0195,0.0141,0.0085,0.0227,0.0226,0.0226,0.0225,0,0.0296,0.0261,0.0271,0.0254,0.0259,0.0287,0.0313,0.0346,0.0351,0.0429,0.0445,0.0457,0.0499,0.0447,0.0447,0.0358,0.0295,0.0327,0.0323,0.0323,0.0182,0.0127,0.012,0.007,0.0297,0.0297,0.0297,0,0.0323,0.0333,0.0326,0.0344,0.0342,0.0375,0.0403,0.0399,0.0445,0.0528,0.0586,0.0637,0.0709,0.0682,0.0541,0.0462,0.0359,0.0362,0.027,0.0186,0.0128,0.0089,0.0044,0.03,0.03,0.03,0.03,0,0.0391,0.0389,0.04,0.0428,0.0457,0.0492,0.0539,0.0592,0.0622,0.071,0.0845,0.0914,0.0871,0.0798,0.0638,0.055,0.0286,0.0357,0.0282,0.0138,0.0086,0.0036,0.0239,0.03,0.03,0.03,0.03,0.03,0.0454,0.0476,0.049,0.0527,0.0557,0.0617,0.0676,0.0752,0.0865,0.1005,0.105,0.117,0.0994,0.0787,0.0644,0.0329,0.0315,0.0214,0.0162,0.0136,0.0056,0.0253,0.0299,0.0299,0.0299,0.0299,0.0299,0,0.053,0.0553,0.0589,0.0628,0.0681,0.0676,0.0772,0.0849,0.1018,0.1146,0.1282,0.1262,0.1057,0.0784,0.0367,0.0165,0.0076,0.0058,0.0003,-0.0032,0.0169,0.0134,0.0132,0.0132,0.0133,0.0133,0.0133,0.0133,0.0571,0.0626,0.0637,0.0733,0.0768,0.0849,0.0913,0.1041,0.1147,0.1315,0.1376,0.1407,0.1208,0.055,0.0108,-0.0001,-0.015,-0.0165,-0.024,-0.011,-0.0099,-0.009,-0.0135,-0.0192,-0.0193,-0.0419,-0.0421,-0.0423]}],[{"header":{"parameterUnit":"m.s-1","parameterCategory":2,"la1":30.2991,"la2":30.254,"lo1":-89.0895,"lo2":-89.0444,"dy":0.0017,"dx":0.0017,"nx":28,"ny":28,"refTime":"2023-09-06T09:00:00:Z","depth":"2","parameterNumber":2,"parameterNumberName":"U-component_of_CURRENTS"},"data":[0,0,0,0,0,0,0,0,0,0,0,0,0,0,0,0,0,0,0,0,0,0,0,0,0,0,0,0,0,0,0,0,0,0,0,0,0,0,0,0,0,0,0,0,0,0,0,0,0,0,0,0,0,0,0,0,0,0,0.1964,0.1963,0,0.1919,0.1918,0.1918,0.1918,0.1919,0.1919,0.1919,0.1925,0.1925,0.1924,0,0,0,0,0,0,0,0,0,0,0,0,0,0.1996,0.1996,0.1964,0.1963,0.1962,0.1919,0.1918,0.1918,0.1918,0.1919,0.1919,0.1919,0.1925,0.1925,0.1924,0,0,0,0,0,0,0,0,0,0,0,0,0,0.1972,0.1996,0.1964,0.1955,0.1953,0.1919,0.1918,0.1918,0.1918,0.1919,0.1919,0.192,0.1925,0.1925,0.1924,0.1914,0,0,0.1924,0.1924,0,0,0,0,0,0,0,0,0.1974,0.1972,0.1957,0.1955,0.1953,0.1922,0.1931,0.1918,0.1918,0.1935,0.1919,0.192,0.1926,0.1926,0.192,0.1914,0.1914,0.1924,0.1924,0.1923,0.1923,0,0,0,0,0,0,0,0.1976,0.1973,0.1949,0.1956,0.1954,0.1934,0.1932,0.1929,0.1932,0.1933,0.1933,0.1922,0.1926,0.192,0.192,0.1914,0.1924,0.1924,0.1923,0.1923,0.1973,0.1974,0,0,0,0,0,0,0.1977,0.1975,0.195,0.1947,0.1961,0.1933,0.1931,0.1934,0.1931,0.1929,0.1922,0.1923,0.192,0.192,0.192,0.1971,0.1923,0.1923,0.1923,0.1971,0.1973,0.1975,0,0,0,0,0,0,0.1978,0.1976,0.1952,0.1957,0.1952,0.1932,0.1935,0.1933,0.1941,0.1921,0.1921,0.1934,0.1921,0.1921,0.1927,0.1969,0.1923,0.1923,0.197,0.1972,0.1974,0.2032,0,0,0,0,0,0,0.198,0.1977,0.1975,0.1958,0.1952,0.1945,0.1935,0.1932,0.1931,0.1932,0.1931,0.1931,0.1921,0.1927,0.1927,0.1968,0.1923,0.1968,0.1971,0.1973,0.2028,0.2035,0.2042,0,0,0,0,0,0.1981,0.1976,0.1976,0.1972,0.1952,0.1945,0.1941,0.1929,0.1932,0.1938,0.1935,0.1932,0.1945,0.1927,0.1927,0.1969,0.1967,0.197,0.1973,0.2025,0.2034,0.2042,0,0,0,0,0,0,0.1992,0.1975,0.1974,0.1966,0.1962,0.1944,0.195,0.1938,0.194,0.1954,0.1934,0.1934,0.1964,0.1952,0.1933,0.1993,0.1962,0.1965,0.2002,0.201,0.2017,0.2038,0.1923,0,0,0,0,0,0.1993,0.1995,0.1975,0.1978,0.1981,0.197,0.1965,0.1963,0.1959,0.1961,0.1959,0.1965,0.1974,0.1979,0.1987,0.2004,0.2012,0.2036,0.2043,0.2049,0.2067,0.2086,0.2096,0.1985,0.1985,0.1985,0,0,0.2009,0.1992,0.2,0.1981,0.1988,0.1988,0.1971,0.1983,0.1987,0.1962,0.1984,0.1991,0.1985,0.2014,0.2027,0.2009,0.2091,0.2054,0.2059,0.2073,0.209,0.2101,0.211,0.1988,0.1987,0.1987,0,0,0.203,0.2028,0.2033,0.2029,0.2027,0.2017,0.2024,0.2022,0.2031,0.2039,0.2036,0.206,0.2064,0.2073,0.2074,0.2122,0.213,0.2139,0.2187,0.2205,0.2214,0.2222,0.2271,0.2283,0.2139,0.2139,0.2139,0,0.2043,0.2044,0.2035,0.2034,0.2039,0.2035,0.2048,0.2047,0.2047,0.2067,0.2059,0.2099,0.2093,0.2128,0.2153,0.214,0.2163,0.2152,0.2214,0.2222,0.223,0.2277,0.2289,0.2142,0.2142,0.2141,0.2141,0,0.2056,0.2065,0.2078,0.2076,0.2078,0.2098,0.2094,0.2115,0.2126,0.2127,0.2178,0.2173,0.2195,0.2208,0.2194,0.2256,0.2263,0.2223,0.2191,0.2244,0.2291,0.2303,0.2146,0.2145,0.2144,0.2144,0,0,0.2065,0.2083,0.2088,0.2093,0.2107,0.2104,0.2142,0.2163,0.2183,0.221,0.2248,0.2278,0.2291,0.2295,0.2293,0.2318,0.2393,0.2305,0.2304,0.2353,0.247,0.2374,0.2377,0.2365,0.2367,0.2369,0.2491,0,0.2082,0.2088,0.2098,0.212,0.2126,0.2153,0.217,0.2195,0.2223,0.2257,0.2292,0.2328,0.2315,0.2342,0.2364,0.2388,0.2425,0.2367,0.2413,0.2416,0.2321,0.2387,0.2171,0.2252,0.2502,0.2504,0.2505,0,0.2062,0.208,0.2105,0.213,0.2138,0.2157,0.2202,0.2222,0.228,0.2311,0.2371,0.2388,0.2459,0.2423,0.2502,0.2471,0.2487,0.2499,0.2502,0.24,0.2339,0.2235,0.2264,0.2525,0.2523,0.2522,0.2521,0,0.2022,0.2062,0.2085,0.2097,0.2133,0.2173,0.2206,0.2256,0.2288,0.2373,0.2411,0.2473,0.2513,0.2553,0.2576,0.2557,0.265,0.261,0.2545,0.254,0.2359,0.2333,0.2665,0.2664,0.2664,0.2664,0.2663,0,0.1987,0.2006,0.2076,0.2089,0.2125,0.2164,0.2218,0.2257,0.2337,0.2377,0.2445,0.2484,0.2547,0.2592,0.2615,0.262,0.2677,0.2581,0.2564,0.2374,0.235,0.2574,0.2562,0.2668,0.2667,0.2666,0.2666,0,0.1916,0.1963,0.1994,0.2074,0.2102,0.2133,0.2235,0.2267,0.2349,0.2414,0.2456,0.2528,0.2591,0.2632,0.2696,0.2653,0.2679,0.2659,0.245,0.2403,0.2562,0.2551,0.2629,0.2627,0.2625,0.2623,0.2622,0,0.1876,0.1888,0.1978,0.2008,0.2058,0.2128,0.2171,0.2271,0.2313,0.2425,0.2444,0.2537,0.2546,0.2608,0.2583,0.2608,0.2656,0.2399,0.2303,0.2583,0.2558,0.2551,0.2544,0.2112,0.2107,0.2102,0.2098,0,0.1824,0.1863,0.1893,0.1955,0.2017,0.2068,0.215,0.2168,0.2273,0.2311,0.2345,0.2374,0.2445,0.2345,0.2371,0.2353,0.2378,0.2307,0.2655,0.2134,0.2098,0.2073,0.2082,0.2058,0.2062,0.2065,0.2068,0.2069,0.1785,0.1796,0.184,0.189,0.1942,0.1967,0.1965,0.2031,0.2047,0.2055,0.2159,0.2131,0.2167,0.2087,0.2036,0.2007,0.2175,0.206,0.2073,0.2091,0.1989,0.1948,0.1865,0.1868,0.187,0.1872,0.1874,0,0.1722,0.1748,0.1777,0.1812,0.1805,0.1887,0.1904,0.1864,0.1816,0.1869,0.1864,0.1705,0.1646,0.1715,0.1609,0.1603,0.1586,0.1533,0.1488,0.1529,0.1565,0.1434,0.1165,0.1163,0.1161,0.1159,0,0,0.1689,0.1685,0.1703,0.1666,0.1686,0.1653,0.1629,0.1573,0.1566,0.1477,0.1456,0.1554,0.1645,0.1376,0.1342,0.1236,0.1372,0.1185,0.1754,0.1742,0.1775,0.187,0.1715,0,0,0,0,0]},{"header":{"parameterUnit":"m.s-1","parameterCategory":2,"la1":30.2991,"la2":30.254,"lo1":-89.0895,"lo2":-89.0444,"dy":0.0017,"dx":0.0017,"nx":28,"ny":28,"refTime":"2023-09-06T09:00:00:Z","depth":"2","parameterNumber":3,"parameterNumberName":"V-component_of_CURRENTS"},"data":[0,0,0,0,0,0,0,0,0,0,0,0,0,0,0,0,0,0,0,0,0,0,0,0,0,0,0,0,0,0,0,0,0,0,0,0,0,0,0,0,0,0,0,0,0,0,0,0,0,0,0,0,0,0,0,0,0,0,0.013,0.013,0,0.0101,0.01,0.01,0.0072,0.0071,0.0071,0.0071,0.0032,0.0031,0.003,0,0,0,0,0,0,0,0,0,0,0,0,0,0.0181,0.018,0.013,0.013,0.0129,0.0101,0.01,0.01,0.0072,0.0071,0.0071,0.0071,0.0032,0.0031,0.003,0,0,0,0,0,0,0,0,0,0,0,0,0,0.0155,0.018,0.013,0.0113,0.0111,0.0101,0.01,0.01,0.0072,0.0071,0.0071,0.0071,0.0032,0.0031,0.003,0.0031,0,0,0.0026,0.0026,0,0,0,0,0,0,0,0,0.0157,0.0153,0.0116,0.0114,0.0112,0.009,0.0104,0.0076,0.0072,0.0086,0.0071,0.007,0.0051,0.0049,0.0043,0.0029,0.0027,0.0026,0.0026,0.0025,0.0025,0,0,0,0,0,0,0,0.0158,0.0154,0.0117,0.0115,0.0113,0.0113,0.0109,0.0099,0.007,0.0084,0.0082,0.0081,0.005,0.0044,0.0042,0.0027,0.0026,0.0025,0.0025,0.0024,0.0011,0.0011,0,0,0,0,0,0,0.0163,0.0156,0.0118,0.0117,0.0135,0.0113,0.0108,0.0097,0.007,0.0066,0.0081,0.008,0.0046,0.0043,0.004,0.0046,0.0025,0.0024,0.0023,0.0011,0.0011,0.0011,0,0,0,0,0,0,0.0164,0.016,0.012,0.0137,0.0132,0.0112,0.01,0.0096,0.0089,0.0068,0.0064,0.0078,0.0046,0.0042,0.0038,0.0044,0.0023,0.0022,0.001,0.0011,0.0011,0.0054,0,0,0,0,0,0,0.0166,0.016,0.0156,0.0137,0.0131,0.0121,0.0101,0.0096,0.0089,0.0087,0.0064,0.006,0.0045,0.004,0.0037,0.0042,0.0021,0.001,0.001,0.0011,0.0052,0.0055,0.0059,0,0,0,0,0,0.0167,0.017,0.0156,0.0151,0.0125,0.0122,0.0119,0.0103,0.009,0.0093,0.0078,0.0061,0.0042,0.004,0.0036,0.0041,0.0009,0.001,0.0011,0.005,0.0055,0.0059,0,0,0,0,0,0,0.0187,0.0167,0.0151,0.0145,0.0136,0.0118,0.0118,0.0106,0.0096,0.009,0.0069,0.0064,0.0062,0.0047,0.0045,0.0038,0.0021,0.0022,0.0052,0.0057,0.006,0.0072,0.002,0,0,0,0,0,0.019,0.0185,0.0166,0.016,0.0156,0.0135,0.0131,0.012,0.0108,0.0103,0.0085,0.0069,0.0062,0.0057,0.0046,0.0045,0.0031,0.0044,0.0047,0.005,0.0058,0.0046,0.0049,0.0014,0.0014,0.0014,0,0,0.0197,0.0183,0.0181,0.0165,0.0152,0.0157,0.0132,0.0128,0.0134,0.0101,0.01,0.0081,0.0065,0.0064,0.0061,0.0053,0.0052,0.0051,0.0054,0.006,0.0047,0.005,0.0053,0.0015,0.0015,0.0014,0,0,0.0213,0.0194,0.0198,0.0193,0.0179,0.0172,0.0172,0.0153,0.0148,0.0148,0.0124,0.0113,0.0098,0.0089,0.0084,0.0101,0.0071,0.0089,0.0117,0.0106,0.0109,0.0111,0.0095,0.0095,0.0091,0.0091,0.0091,0,0.0226,0.0219,0.02,0.0205,0.0208,0.0181,0.0194,0.0188,0.0171,0.0172,0.0154,0.0133,0.0114,0.0121,0.0122,0.011,0.0093,0.0104,0.0111,0.0113,0.0115,0.0097,0.0097,0.0093,0.0093,0.0093,0.0093,0,0.0244,0.0241,0.0244,0.0241,0.0245,0.025,0.0243,0.0242,0.0228,0.022,0.0216,0.0189,0.0178,0.0165,0.0148,0.015,0.0131,0.0117,0.0102,0.0121,0.0101,0.01,0.0096,0.0096,0.0095,0.0094,0,0,0.027,0.0261,0.0263,0.027,0.0265,0.0276,0.0287,0.0295,0.0312,0.0283,0.0299,0.0272,0.0245,0.0237,0.0208,0.0192,0.0184,0.0159,0.0157,0.0146,0.0151,0.0133,0.013,0.0167,0.0167,0.0167,0.0131,0,0.0291,0.0311,0.0301,0.0329,0.0342,0.0331,0.0353,0.0358,0.0353,0.0362,0.0328,0.033,0.0277,0.0272,0.0247,0.0204,0.0184,0.0194,0.0131,0.013,0.0114,0.0129,0.0144,0.0113,0.013,0.013,0.013,0,0.0317,0.0327,0.0356,0.038,0.0386,0.04,0.0433,0.045,0.0453,0.045,0.0432,0.0405,0.0379,0.0333,0.0265,0.0271,0.0214,0.0175,0.0172,0.0142,0.0111,0.0097,0.0111,0.0129,0.0129,0.0129,0.0129,0,0.0356,0.0372,0.0399,0.0405,0.0426,0.044,0.0455,0.0471,0.0504,0.0503,0.0524,0.0475,0.0467,0.0388,0.0294,0.028,0.0218,0.0192,0.0121,0.0119,0.0114,0.0111,0.0146,0.0146,0.0146,0.0146,0.0146,0,0.0389,0.0412,0.0416,0.0432,0.0479,0.0479,0.0532,0.054,0.0569,0.0623,0.0569,0.0597,0.0479,0.0427,0.0325,0.0223,0.0239,0.0132,0.0112,0.0128,0.0127,0.0126,0.0124,0.0144,0.0145,0.0145,0.0145,0,0.0428,0.0426,0.0465,0.0487,0.0496,0.0533,0.0584,0.0627,0.0645,0.0713,0.0719,0.0691,0.0624,0.05,0.0381,0.0278,0.0175,0.0133,0.0155,0.0138,0.0074,0.0075,0.0055,0.0055,0.0054,0.0053,0.0053,0,0.0448,0.0468,0.0511,0.0538,0.0543,0.0591,0.0631,0.0661,0.0715,0.0778,0.082,0.0777,0.0755,0.0566,0.0386,0.021,0.0181,0.0099,0.0075,0.0084,0.0067,0.0069,0.0071,0.0082,0.0082,0.0081,0.0081,0,0.049,0.0504,0.0538,0.0596,0.0634,0.0691,0.0746,0.0803,0.086,0.0911,0.0964,0.0948,0.0787,0.0614,0.0373,0.025,0.0125,0.0089,0.0103,0.0102,0.0106,0.009,0.0091,0.008,0.008,0.008,0.008,0.008,0.0526,0.0559,0.0603,0.0657,0.0708,0.0779,0.0829,0.0899,0.0986,0.1048,0.1044,0.1009,0.0835,0.052,0.033,0.0123,0.013,0.0039,0.0041,0.0043,0.0052,0.0055,0.002,0.002,0.002,0.0019,0.0019,0,0.0566,0.0598,0.0657,0.0723,0.0779,0.08,0.0899,0.0941,0.1032,0.1079,0.109,0.0909,0.0738,0.0538,0.0245,0.0066,0.005,-0.0005,0.0022,0.0025,0.0028,0.0037,0.0,-0.0,-0.0001,-0.0001,0,0,0.0589,0.0641,0.0668,0.076,0.0807,0.0876,0.0928,0.0989,0.1036,0.1053,0.1028,0.0983,0.0783,0.0559,0.0332,0.0171,0.0129,0.0126,0.016,0.0222,0.0226,0.0072,0.0091,0,0,0,0,0]}],[{"header":{"parameterUnit":"m.s-1","parameterCategory":2,"la1":30.2991,"la2":30.254,"lo1":-89.0895,"lo2":-89.0444,"dy":0.0017,"dx":0.0017,"nx":28,"ny":28,"refTime":"2023-09-06T09:00:00:Z","depth":"4","parameterNumber":2,"parameterNumberName":"U-component_of_CURRENTS"},"data":[0,0,0,0,0,0,0,0,0,0,0,0,0,0,0,0,0,0,0,0,0,0,0,0,0,0,0,0,0,0,0,0,0,0,0,0,0,0,0,0,0,0,0,0,0,0,0,0,0,0,0,0,0,0,0,0,0,0,0.0893,0.0893,0,0.097,0.0971,0.0972,0.1038,0.1039,0.104,0.104,0.1128,0.113,0.1131,0,0,0,0,0,0,0,0,0,0,0,0,0,0.0857,0.0857,0.0892,0.0893,0.0894,0.097,0.0971,0.0972,0.1038,0.1039,0.104,0.1041,0.1128,0.113,0.1132,0,0,0,0,0,0,0,0,0,0,0,0,0,0.0897,0.0857,0.0892,0.0936,0.0941,0.097,0.0971,0.0972,0.1038,0.1039,0.104,0.1041,0.1127,0.1129,0.1132,0.1127,0,0,0.114,0.1141,0,0,0,0,0,0,0,0,0.0895,0.0899,0.0929,0.0933,0.0938,0.0995,0.0991,0.1024,0.1038,0.1002,0.104,0.1041,0.1083,0.1089,0.1103,0.1131,0.1135,0.114,0.1141,0.1143,0.1143,0,0,0,0,0,0,0,0.0892,0.0896,0.0924,0.0929,0.0935,0.097,0.0977,0.0998,0.1036,0.1005,0.101,0.1017,0.1086,0.11,0.1105,0.1136,0.114,0.1142,0.1144,0.1145,0.1256,0.1257,0,0,0,0,0,0,0.0877,0.0893,0.0921,0.0926,0.0918,0.097,0.0977,0.0976,0.1036,0.1046,0.1016,0.102,0.1095,0.1102,0.1108,0.1177,0.1142,0.1145,0.1146,0.1254,0.1256,0.1258,0,0,0,0,0,0,0.0876,0.0878,0.0918,0.0912,0.0919,0.0969,0.0968,0.0977,0.1015,0.1044,0.1055,0.1046,0.1096,0.1105,0.1152,0.1179,0.1146,0.1148,0.1253,0.1255,0.1257,0.1269,0,0,0,0,0,0,0.0874,0.0877,0.089,0.091,0.0919,0.0949,0.0967,0.0978,0.1016,0.1022,0.1073,0.1081,0.1098,0.1149,0.1155,0.1181,0.115,0.1251,0.1254,0.1256,0.1267,0.1272,0.1276,0,0,0,0,0,0.0873,0.0882,0.0889,0.0894,0.0928,0.095,0.0958,0.0998,0.1016,0.1035,0.1074,0.1081,0.117,0.1151,0.1159,0.1187,0.125,0.1253,0.1256,0.1265,0.1271,0.1276,0,0,0,0,0,0,0.0879,0.089,0.0899,0.0913,0.0935,0.0961,0.0987,0.1007,0.1052,0.1065,0.1094,0.1105,0.1158,0.117,0.1149,0.1229,0.1213,0.1218,0.1218,0.1223,0.1227,0.1231,0.1152,0,0,0,0,0,0.0881,0.0889,0.0906,0.0919,0.093,0.096,0.0981,0.1003,0.1036,0.1058,0.1094,0.1135,0.1173,0.1196,0.1229,0.1266,0.1282,0.1291,0.1296,0.1299,0.1309,0.1352,0.1361,0.1268,0.1268,0.1268,0,0,0.0886,0.0895,0.09,0.0921,0.0942,0.0964,0.0977,0.1008,0.1037,0.1059,0.112,0.1151,0.1187,0.1235,0.126,0.1251,0.1335,0.1303,0.1305,0.1314,0.1356,0.1365,0.1373,0.127,0.127,0.127,0,0,0.0896,0.0907,0.0918,0.0935,0.0965,0.0981,0.0992,0.1029,0.1061,0.111,0.1138,0.1186,0.1243,0.1274,0.1296,0.1342,0.1355,0.1356,0.138,0.1422,0.143,0.1437,0.1466,0.1476,0.1358,0.1358,0.1358,0,0.0908,0.0912,0.0928,0.0945,0.0961,0.0989,0.1008,0.1042,0.1094,0.1123,0.1136,0.1236,0.1263,0.1322,0.1344,0.1352,0.1375,0.1354,0.1427,0.1434,0.1441,0.1469,0.148,0.1359,0.1359,0.1358,0.1358,0,0.092,0.0931,0.0939,0.0964,0.099,0.1006,0.1044,0.1084,0.1124,0.1158,0.1234,0.1276,0.1338,0.1353,0.1366,0.1431,0.1431,0.1425,0.1409,0.1451,0.1478,0.1489,0.136,0.136,0.1359,0.1359,0,0,0.0927,0.0942,0.0948,0.0957,0.0996,0.1016,0.1067,0.1116,0.116,0.1221,0.1281,0.1349,0.138,0.1407,0.143,0.1467,0.1533,0.1472,0.1473,0.1492,0.1625,0.1502,0.1502,0.154,0.1543,0.1544,0.1623,0,0.0932,0.0946,0.0962,0.0991,0.1,0.104,0.1087,0.1143,0.1197,0.1265,0.1321,0.1391,0.1398,0.1438,0.1477,0.1526,0.1563,0.1512,0.159,0.1592,0.1471,0.1511,0.1551,0.1631,0.1633,0.1635,0.1636,0,0.0939,0.0946,0.096,0.0993,0.1006,0.1039,0.1114,0.116,0.1253,0.13,0.1374,0.1425,0.1507,0.15,0.1603,0.1574,0.1607,0.1633,0.1636,0.1525,0.1489,0.1583,0.1655,0.1654,0.1652,0.1651,0.165,0,0.0919,0.0947,0.0953,0.0962,0.101,0.1045,0.1089,0.1177,0.1228,0.1333,0.1388,0.1478,0.1545,0.1601,0.1665,0.1648,0.1764,0.1742,0.1659,0.1651,0.1732,0.1724,0.181,0.181,0.181,0.181,0.1809,0,0.0896,0.0911,0.0948,0.0949,0.0989,0.104,0.1104,0.1162,0.1257,0.1318,0.141,0.147,0.1578,0.1654,0.169,0.1706,0.1788,0.1672,0.1665,0.1735,0.1726,0.1739,0.173,0.1813,0.1812,0.1811,0.1811,0,0.0866,0.088,0.0897,0.0948,0.0972,0.1009,0.1103,0.1148,0.1249,0.1332,0.1374,0.1497,0.1587,0.1671,0.177,0.173,0.1762,0.1746,0.1823,0.1819,0.1614,0.1605,0.1656,0.1652,0.1649,0.1646,0.1644,0,0.0843,0.0845,0.0891,0.0905,0.0929,0.0992,0.1032,0.1134,0.118,0.1331,0.136,0.1491,0.156,0.1603,0.1689,0.1742,0.1724,0.1722,0.1655,0.1611,0.1601,0.1596,0.1591,0.1639,0.1638,0.1638,0.1637,0,0.0809,0.0833,0.0843,0.0866,0.0901,0.0935,0.1002,0.1031,0.1147,0.1254,0.1317,0.1374,0.1466,0.1532,0.1588,0.162,0.171,0.1689,0.1695,0.1632,0.1592,0.1583,0.1582,0.1626,0.1628,0.1629,0.1629,0,0.0795,0.0791,0.0805,0.0823,0.0861,0.0866,0.0906,0.0958,0.1018,0.118,0.1198,0.1331,0.1444,0.147,0.1522,0.1542,0.1515,0.1457,0.1474,0.1487,0.1395,0.1316,0.1267,0,0,0,0,0,0.0779,0.0761,0.0762,0.0764,0.0798,0.0819,0.0881,0.0924,0.1041,0.105,0.1121,0.1197,0.127,0.1339,0.133,0.1451,0.1523,0.1432,0.1464,0.1567,0.1579,0.1486,0,0,0,0,0,0,0.0761,0.0762,0.0739,0.0717,0.0716,0.0738,0.0774,0.0841,0.0851,0.0977,0.1026,0.112,0.1215,0.1275,0.131,0.1331,0.1322,0.1516,0.1512,0.156,0.1571,0.1581,0.1489,0,0,0,0,0]},{"header":{"parameterUnit":"m.s-1","parameterCategory":2,"la1":30.2991,"la2":30.254,"lo1":-89.0895,"lo2":-89.0444,"dy":0.0017,"dx":0.0017,"nx":28,"ny":28,"refTime":"2023-09-06T09:00:00:Z","depth":"4","parameterNumber":3,"parameterNumberName":"V-component_of_CURRENTS"},"data":[0,0,0,0,0,0,0,0,0,0,0,0,0,0,0,0,0,0,0,0,0,0,0,0,0,0,0,0,0,0,0,0,0,0,0,0,0,0,0,0,0,0,0,0,0,0,0,0,0,0,0,0,0,0,0,0,0,0,0.0195,0.0194,0,0.0173,0.0173,0.0173,0.0157,0.0157,0.0156,0.0156,0.0129,0.0129,0.0128,0,0,0,0,0,0,0,0,0,0,0,0,0,0.0223,0.0222,0.0195,0.0194,0.0194,0.0174,0.0173,0.0173,0.0157,0.0157,0.0156,0.0156,0.013,0.0129,0.0128,0,0,0,0,0,0,0,0,0,0,0,0,0,0.0207,0.0222,0.0195,0.0183,0.0182,0.0174,0.0173,0.0173,0.0157,0.0157,0.0156,0.0156,0.013,0.0129,0.0128,0.0129,0,0,0.0126,0.0125,0,0,0,0,0,0,0,0,0.0208,0.0206,0.0185,0.0184,0.0183,0.0167,0.0173,0.0158,0.0157,0.0167,0.0156,0.0156,0.0141,0.014,0.0137,0.0128,0.0127,0.0126,0.0125,0.0125,0.0125,0,0,0,0,0,0,0,0.0209,0.0207,0.0187,0.0185,0.0183,0.018,0.0177,0.017,0.0156,0.0166,0.0165,0.0162,0.0141,0.0138,0.0136,0.0126,0.0126,0.0125,0.0124,0.0124,0.0124,0.0124,0,0,0,0,0,0,0.0211,0.0208,0.0187,0.0186,0.0194,0.0179,0.0176,0.0173,0.0156,0.0154,0.0162,0.0161,0.0139,0.0137,0.0135,0.0148,0.0125,0.0124,0.0124,0.0123,0.0124,0.0124,0,0,0,0,0,0,0.0212,0.021,0.0188,0.0196,0.0193,0.0179,0.0175,0.0172,0.0171,0.0153,0.015,0.0163,0.0139,0.0136,0.0136,0.0146,0.0124,0.0123,0.0123,0.0124,0.0124,0.0165,0,0,0,0,0,0,0.0213,0.021,0.0209,0.0196,0.0193,0.019,0.0175,0.0172,0.0169,0.0168,0.0153,0.015,0.0139,0.0138,0.0136,0.0145,0.0122,0.0122,0.0123,0.0124,0.0163,0.0167,0.017,0,0,0,0,0,0.0214,0.0217,0.0209,0.0207,0.0192,0.0191,0.0189,0.0178,0.017,0.0174,0.0165,0.0151,0.0142,0.0138,0.0135,0.0144,0.0122,0.0123,0.0124,0.0161,0.0166,0.017,0,0,0,0,0,0,0.0227,0.0215,0.0207,0.0205,0.02,0.0188,0.019,0.0181,0.0177,0.0176,0.0158,0.0155,0.0158,0.0146,0.0142,0.0146,0.0129,0.0129,0.0158,0.0163,0.0166,0.0172,0.0122,0,0,0,0,0,0.023,0.0229,0.0217,0.0216,0.0215,0.0203,0.0201,0.0194,0.0187,0.0185,0.0174,0.0165,0.0161,0.0158,0.0151,0.0155,0.0132,0.0158,0.0162,0.0165,0.0168,0.0145,0.0146,0.0128,0.0128,0.0128,0,0,0.0236,0.0227,0.0228,0.0219,0.0214,0.0221,0.0202,0.0202,0.0209,0.0183,0.019,0.0178,0.0164,0.0169,0.0169,0.016,0.0157,0.0166,0.0169,0.0171,0.0146,0.0147,0.0149,0.0129,0.0129,0.0128,0,0,0.025,0.024,0.0246,0.0246,0.0239,0.0235,0.0237,0.0228,0.0227,0.0232,0.0215,0.021,0.0203,0.0196,0.0191,0.0211,0.0178,0.0207,0.0231,0.0208,0.0209,0.021,0.0178,0.0176,0.0209,0.0209,0.0209,0,0.0256,0.0261,0.0249,0.0256,0.026,0.0245,0.0258,0.0257,0.0249,0.025,0.0241,0.0228,0.0217,0.0221,0.0228,0.022,0.0196,0.0216,0.0212,0.0213,0.0213,0.018,0.0177,0.0211,0.021,0.021,0.021,0,0.0276,0.0281,0.0287,0.0292,0.0297,0.0305,0.0303,0.0306,0.0301,0.0294,0.0294,0.0277,0.0269,0.0265,0.0254,0.0252,0.023,0.022,0.0201,0.0217,0.0181,0.0177,0.0214,0.0213,0.0212,0.0212,0,0,0.0286,0.0298,0.0302,0.0312,0.0316,0.0324,0.034,0.0348,0.0357,0.0345,0.0352,0.0342,0.0323,0.0317,0.0297,0.0279,0.0258,0.0252,0.025,0.0221,0.0197,0.0181,0.0175,0.0244,0.0244,0.0244,0.0169,0,0.0306,0.0329,0.0332,0.0361,0.0373,0.0372,0.0392,0.0396,0.0393,0.0395,0.0372,0.0372,0.0346,0.0342,0.032,0.0277,0.025,0.0279,0.0186,0.0183,0.0167,0.0171,0.0243,0.0166,0.0165,0.0165,0.0164,0,0.0322,0.0338,0.037,0.0396,0.0403,0.0422,0.0446,0.0461,0.046,0.0456,0.0442,0.0419,0.0396,0.037,0.0298,0.0315,0.026,0.0221,0.0217,0.0186,0.016,0.0148,0.0156,0.0157,0.0157,0.0158,0.0158,0,0.0334,0.0363,0.0392,0.04,0.043,0.0449,0.0468,0.0479,0.05,0.0493,0.0497,0.0457,0.0442,0.0374,0.0291,0.0293,0.02,0.0192,0.0122,0.012,0.0138,0.0137,0.0135,0.0135,0.0135,0.0135,0.0136,0,0.0347,0.0371,0.0401,0.0418,0.0459,0.0472,0.0515,0.0524,0.0544,0.0566,0.053,0.0526,0.0442,0.0379,0.0298,0.0196,0.0202,0.0125,0.0102,0.0156,0.0159,0.0134,0.0135,0.0133,0.0133,0.0134,0.0134,0,0.0352,0.0371,0.0408,0.045,0.0466,0.0497,0.0554,0.0583,0.0595,0.062,0.0621,0.0576,0.0494,0.0396,0.028,0.021,0.0112,0.0071,0.0129,0.011,0.0043,0.0047,-0.0009,-0.001,-0.0011,-0.0012,-0.0012,0,0.0356,0.0375,0.0433,0.0461,0.0482,0.0532,0.057,0.0606,0.0635,0.0646,0.0655,0.0591,0.0544,0.0365,0.0263,0.0103,0.008,0.0022,0.004,0.0046,0.0029,0.0035,0.004,-0.0014,-0.0014,-0.0014,-0.0015,0,0.0366,0.0389,0.0422,0.048,0.0526,0.0577,0.0629,0.0656,0.0693,0.0703,0.0672,0.0587,0.0491,0.036,0.0233,0.0121,0.0059,0.0012,0.0013,0.003,0.0039,0.0025,0.0031,-0.0018,-0.0017,-0.0017,-0.0017,0,0.0376,0.0398,0.0444,0.0495,0.0553,0.0602,0.0633,0.0663,0.0694,0.0703,0.0687,0.059,0.0536,0.0368,0.0253,0.014,0.0114,0.0073,0.0071,0.0073,0.0121,0.0147,0.0102,0,0,0,0,0,0.0382,0.0405,0.0453,0.0508,0.0567,0.0597,0.0663,0.0691,0.0725,0.0703,0.0698,0.0606,0.0441,0.0373,0.0257,0.0235,0.0095,0.0094,0.0047,-0.0036,-0.0032,0.0009,0,0,0,0,0,0,0.0387,0.0426,0.0448,0.0511,0.0545,0.0608,0.065,0.0674,0.0664,0.0677,0.0592,0.0559,0.0401,0.0498,0.0245,0.0214,0.0165,0.0023,0.002,-0.0038,-0.0035,-0.0032,0.0012,0,0,0,0,0]}]]